Location: Colossi of Memnon
(25.7167°N, 32.6167°E)
Time: 04:42:03
(UTC+00:00)

Cosmos 1386 Rocket - Pass Details

Date: 05 March 2021
Orbit: 929 x 1006 km, 83.0° (Epoch: 10 April)

Event Time Altitude Azimuth Distance (km) Brightness Sun altitude
Rises 02:18:28 0° 350° (N) 3,726 7.5 -25.7°
Reaches altitude 10° 02:21:02 10° 348° (NNW) 2,768 6.8 -25.1°
Maximum altitude 02:27:18 64° 268° (W) 1,087 4.4 -23.7°
Drops below altitude 10° 02:33:27 10° 188° (S) 2,713 6.7 -22.3°
Sets 02:35:57 0° 185° (S) 3,647 7.4 -21.8°
